User: anonymous   Login
Location: Unspecified
(0.0000°N, 0.0000°E)
Time: 15:54:12
(UTC+00:00)
Language:

ISS - Orbit

View from above orbital plane
View from above orbital plane
View from above satellite
View from above satellite

Ground track
Ground track

The orbit data is extracted from the following two-line orbital elements,

1 25544U 98067A   15059.06501944  .00010920  00000-0  16720-3 0  9990
2 25544 051.6466 269.0491 0007920 056.2247 044.7240 15.54886814931054
Epoch (UTC): 28 February 2015 01:33:37
Eccentricity: 0.0007920
inclination: 51.6466°
perigee height: 397 km
apogee height: 408 km
right ascension of ascending node: 269.0491°
argument of perigee: 56.2247°
revolutions per day: 15.54886814
mean anomaly at epoch: 44.7240°
orbit number at epoch: 93105

The dashed part of the orbit path shows where the satellite is in the earth's shadow,  

DLR